Location: Cheching
(60.0667°N, 164.2167°W)
Time: 19:37:29
(UTC+00:00)

DX 1 - Pass Details

Date: 25 January 2021
Orbit: 618 x 631 km, 98.5° (Epoch: 26 February)

Event Time Altitude Azimuth Distance (km) Brightness Sun altitude
Rises 14:39:29 0° 112° (ESE) 2,914 ? -34.5°
Reaches altitude 10° 14:42:07 10° 96° (E) 2,008 ? -34.2°
Maximum altitude 14:45:19 21° 49° (NE) 1,437 ? -33.8°
Enters shadow 14:46:19 19° 30° (NNE) 1,502 ? -33.7°
